Hugo, OK

8:58 PM CST on January 23, 2018 (GMT -0600)
Stamper Municipal

Weather History for KHHW - November, 2012

Change the Weather History Date:

Tuesday, November 20, 2012

  Actual Average Record
Temperature  
Mean Temperature 62 °F -  
Max Temperature 77 °F 63 °F 68 °F (2015)
Min Temperature 47 °F 41 °F 29 °F (2016)
Degree Days  
Heating Degree Days 3    
Growing Degree Days 12 (Base 50)    
Moisture  
Dew Point 48 °F    
Average Humidity 60    
Maximum Humidity 82    
Minimum Humidity 42    
Precipitation  
Precipitation 0.00 in - - ()
Sea Level Pressure  
Sea Level Pressure 30.17 in    
Wind  
Wind Speed 3 mph ()    
Max Wind Speed 6 mph    
Max Gust Speed -    
Visibility 10.0 miles    
Events      
Averages and records for this station are not official NWS values.
T = Trace of Precipitation, MM = Missing Value Source: Averaged Metar Reports

Daily Weather History Graph

Daily Weather History Graph

Search for Another Location

Airport or City:

Trip Planner

Search our weather history database for the weather conditions in past years. The results will help you decide how hot, cold, wet, or windy it might be!

Date:

Astronomy

Nov. 20, 2012 Rise Set
Actual Time 6:59 AM CST 5:15 PM CST
Civil Twilight 6:33 AM CST 5:42 PM CST
Nautical Twilight 6:02 AM CST 6:12 PM CST
Astronomical Twilight 5:32 AM CST 6:42 PM CST
Moon 12:44 PM CST (11/20) No Moon Set
Length of Visible Light 11h 09m
Length of Day
10h 15m
First Quarter, 51% of the Moon is Illuminated
Nov 20
First Quarter
Nov 28
Full
Dec 6
Last Quarter
Dec 13
New
Dec 19
First Quarter

Hourly Weather History & Observations

Time (CST) Temp. Dew Point Humidity Pressure Visibility Wind Dir Wind Speed Gust Speed Precip Events Conditions
12:15 AM 55.2 °F 43.2 °F 64% 30.16 in 10.0 mi East 4.6 mph - N/A   Mostly Cloudy
12:35 AM 55.8 °F 43.3 °F 63% 30.16 in 10.0 mi East 4.6 mph - N/A   Overcast
12:55 AM 56.3 °F 43.3 °F 62% 30.15 in 10.0 mi East 3.5 mph - N/A   Mostly Cloudy
1:15 AM 54.1 °F 43.5 °F 67% 30.15 in 10.0 mi ESE 3.5 mph - N/A   Mostly Cloudy
1:35 AM 54.7 °F 43.7 °F 66% 30.15 in 10.0 mi East 3.5 mph - N/A   Mostly Cloudy
1:55 AM 54.3 °F 43.7 °F 67% 30.16 in 10.0 mi Calm Calm - N/A   Scattered Clouds
2:15 AM 53.4 °F 43.7 °F 70% 30.17 in 10.0 mi ENE 4.6 mph - N/A   Clear
2:35 AM 51.8 °F 43.7 °F 74% 30.17 in 10.0 mi NE 3.5 mph - N/A   Scattered Clouds
6:15 AM 48.2 °F 42.6 °F 81% 30.17 in 10.0 mi NE 3.5 mph - N/A   Clear
6:35 AM 47.8 °F 42.4 °F 82% 30.17 in 10.0 mi NE 3.5 mph - N/A   Clear
6:55 AM 47.7 °F 42.3 °F 82% 30.18 in 10.0 mi ENE 3.5 mph - N/A   Clear
7:15 AM 47.8 °F 42.3 °F 81% 30.18 in 10.0 mi Calm Calm - N/A   Clear
7:35 AM 48.2 °F 42.6 °F 81% 30.19 in 10.0 mi Calm Calm - N/A   Clear
7:55 AM 49.3 °F 43.0 °F 79% 30.20 in 10.0 mi Calm Calm - N/A   Clear
8:15 AM 51.6 °F 43.9 °F 75% 30.21 in 10.0 mi Calm Calm - N/A   Clear
8:35 AM 53.6 °F 44.2 °F 71% 30.21 in 10.0 mi ENE 3.5 mph - N/A   Clear
8:55 AM 57.6 °F 44.2 °F 61% 30.21 in 10.0 mi East 4.6 mph - N/A   Clear
9:15 AM 59.4 °F 45.0 °F 59% 30.21 in 10.0 mi ESE 3.5 mph - N/A   Clear
9:35 AM 61.7 °F 45.1 °F 55% 30.21 in 10.0 mi Calm Calm - N/A   Clear
9:55 AM 63.1 °F 45.0 °F 51% 30.21 in 10.0 mi Calm Calm - N/A   Clear
10:15 AM 65.3 °F 46.0 °F 50% 30.22 in 10.0 mi Calm Calm - N/A   Clear
10:35 AM 66.6 °F 46.4 °F 48% 30.21 in 10.0 mi Calm Calm - N/A   Clear
10:55 AM 68.9 °F 48.0 °F 47% 30.21 in 10.0 mi Calm Calm - N/A   Clear
11:15 AM 70.5 °F 50.7 °F 49% 30.20 in 10.0 mi NW 4.6 mph - N/A   Clear
11:35 AM 70.9 °F 50.4 °F 48% 30.19 in 10.0 mi Calm Calm - N/A   Clear
11:55 AM 71.8 °F 51.6 °F 49% 30.18 in 10.0 mi Calm Calm - N/A   Clear
12:15 PM 72.9 °F 52.2 °F 48% 30.18 in 10.0 mi Calm Calm - N/A   Clear
12:35 PM 73.8 °F 52.5 °F 47% 30.17 in 10.0 mi Calm Calm - N/A   Clear
12:55 PM 75.0 °F 53.1 °F 46% 30.16 in 10.0 mi Calm Calm - N/A   Clear
1:15 PM 75.2 °F 54.0 °F 47% 30.16 in 10.0 mi West 3.5 mph - N/A   Clear
1:35 PM 75.6 °F 54.1 °F 47% 30.15 in 10.0 mi North 3.5 mph - N/A   Clear
2:15 PM 75.4 °F 53.8 °F 47% 30.14 in 10.0 mi WNW 3.5 mph - N/A   Clear
2:35 PM 76.5 °F 52.7 °F 43% 30.13 in 10.0 mi West 3.5 mph - N/A   Clear
2:55 PM 76.5 °F 52.5 °F 43% 30.13 in 10.0 mi North 5.8 mph - N/A   Clear
3:15 PM 77.0 °F 52.3 °F 42% 30.13 in 10.0 mi NW 5.8 mph - N/A   Clear
3:35 PM 76.5 °F 52.7 °F 43% 30.13 in 10.0 mi NW 4.6 mph - N/A   Clear
3:55 PM 76.1 °F 52.7 °F 44% 30.13 in 10.0 mi Calm Calm - N/A   Clear
4:15 PM 75.6 °F 52.5 °F 45% 30.13 in 10.0 mi Calm Calm - N/A   Clear
4:35 PM 74.8 °F 52.2 °F 45% 30.13 in 10.0 mi NNW 3.5 mph - N/A   Clear
4:55 PM 73.4 °F 50.9 °F 45% 30.13 in 10.0 mi North 3.5 mph - N/A   Clear
5:15 PM 72.0 °F 50.5 °F 47% 30.13 in 10.0 mi Calm Calm - N/A   Clear
5:35 PM 70.9 °F 50.9 °F 49% 30.13 in 10.0 mi Calm Calm - N/A   Clear
5:55 PM 69.1 °F 50.9 °F 52% 30.14 in 10.0 mi NW 3.5 mph - N/A   Clear
6:15 PM 67.5 °F 50.9 °F 55% 30.15 in 10.0 mi NW 3.5 mph - N/A   Clear
6:35 PM 66.2 °F 50.9 °F 58% 30.15 in 10.0 mi WNW 5.8 mph - N/A   Clear
6:55 PM 66.4 °F 50.4 °F 56% 30.16 in 10.0 mi WNW 4.6 mph - N/A   Clear
7:15 PM 65.5 °F 50.4 °F 58% 30.16 in 10.0 mi NW 4.6 mph - N/A   Clear
7:35 PM 64.6 °F 50.2 °F 60% 30.17 in 10.0 mi NW 5.8 mph - N/A   Clear
7:55 PM 64.2 °F 50.2 °F 60% 30.18 in 10.0 mi North 3.5 mph - N/A   Clear
8:15 PM 63.5 °F 50.2 °F 62% 30.18 in 10.0 mi North 4.6 mph - N/A   Clear
8:35 PM 61.5 °F 50.0 °F 66% 30.19 in 10.0 mi Calm Calm - N/A   Clear
8:55 PM 61.9 °F 50.5 °F 66% 30.19 in 10.0 mi Calm Calm - N/A   Clear
9:15 PM 61.3 °F 50.5 °F 68% 30.19 in 10.0 mi NW 3.5 mph - N/A   Clear
9:35 PM 61.0 °F 50.2 °F 68% 30.19 in 10.0 mi NW 3.5 mph - N/A   Clear
9:55 PM 61.9 °F 50.4 °F 66% 30.19 in 10.0 mi North 3.5 mph - N/A   Clear
10:15 PM 59.5 °F 50.0 °F 71% 30.20 in 10.0 mi Calm Calm - N/A   Clear
10:35 PM 58.1 °F 49.6 °F 73% 30.20 in 10.0 mi Calm Calm - N/A   Clear
10:55 PM 59.2 °F 49.6 °F 71% 30.20 in 10.0 mi Calm Calm - N/A   Clear
11:15 PM 57.7 °F 49.6 °F 74% 30.20 in 10.0 mi NNW 4.6 mph - N/A   Clear
11:35 PM 56.8 °F 49.5 °F 76% 30.20 in 10.0 mi NNW 4.6 mph - N/A   Clear
11:55 PM 56.1 °F 49.3 °F 78% 30.20 in 10.0 mi NNW 4.6 mph - N/A   Clear